User: anonymous   Login
Location: Unspecified
(0.0000°N, 0.0000°E)
Time: 13:39:47
(UTC+00:00)
Language:

Orbcomm D8 (FM36) - Orbit

View from above orbital plane
View from above orbital plane
View from above satellite
View from above satellite

Ground track
Ground track

The orbit data is extracted from the following two-line orbital elements,

1 25984U 99065E   18347.87655107 -.00000137 +00000-0 +15466-5 0  9998
2 25984 045.0375 122.1860 0001424 306.1369 053.9345 14.32691475993331
Epoch (UTC): 13 December 2018 21:02:14
Eccentricity: 0.0001424
inclination: 45.0375°
perigee height: 782 km
apogee height: 784 km
right ascension of ascending node: 122.1860°
argument of perigee: 306.1369°
revolutions per day: 14.32691475
mean anomaly at epoch: 53.9345°
orbit number at epoch: 99333

The dashed part of the orbit path shows where the satellite is in the earth's shadow,  

DLR